This is the latest recevied weather packets stored in our database for station/object MB7UUE. If no packets are shown the sender has not sent any weather packets the latest 10 day(s).
| Time | Temp. | Humidity | Pressure | Rain* | Wind** | Luminosity | Snow |
|---|---|---|---|---|---|---|---|
| 1787656297 | 23.33° C | 43% | 1012.9 hPa | 0 mm | - | - | - |
| 1787655157 | 23.33° C | 51% | 1013 hPa | 0 mm | - | - | - |
| 1787654016 | 22.78° C | 51% | 1012.9 hPa | 0 mm | - | - | - |
| 1787652876 | 22.22° C | 51% | 1013.1 hPa | 0 mm | - | - | - |
| 1787651737 | 22.22° C | 54% | 1013 hPa | 0 mm | - | - | - |
| 1787650597 | 22.22° C | 57% | 1013 hPa | 0 mm | - | - | - |
| 1787649456 | 21.67° C | 57% | 1013.1 hPa | 0 mm | - | - | - |
| 1787648317 | 21.11° C | 60% | 1013 hPa | 0 mm | - | - | - |
| 1787647177 | 20.56° C | 65% | 1013 hPa | 0 mm | - | - | - |
| 1787646037 | 20.56° C | 66% | 1013.1 hPa | 0 mm | - | - | - |
| 1787644897 | 19.44° C | 69% | 1013.2 hPa | 0 mm | - | - | - |
| 1787643756 | 18.89° C | 70% | 1013.3 hPa | 0 mm | - | - | - |
| 1787642617 | 18.33° C | 74% | 1013.3 hPa | 0 mm | - | - | - |
| 1787641477 | 17.78° C | 74% | 1013.2 hPa | 0 mm | - | - | - |
| 1787640337 | 17.22° C | 74% | 1013 hPa | 0 mm | - | - | - |
| 1787639197 | 16.67° C | 76% | 1013.1 hPa | 0 mm | - | - | - |
| 1787638056 | 16.11° C | 77% | 1012.9 hPa | 0 mm | - | - | - |
| 1787636917 | 15.56° C | 79% | 1012.9 hPa | 0 mm | - | - | - |
| 1787635778 | 15.56° C | 79% | 1012.9 hPa | 0 mm | - | - | - |
| 1787634637 | 15.56° C | 78% | 1012.9 hPa | 0 mm | - | - | - |
| 1787633510 | 15.56° C | 78% | 1012.9 hPa | 0 mm | - | - | - |
| 1787632370 | 15.56° C | 77% | 1012.8 hPa | 0 mm | - | - | - |
| 1787631230 | 15.56° C | 77% | 1012.8 hPa | 0 mm | - | - | - |
| 1787630090 | 15.56° C | 78% | 1012.9 hPa | 0 mm | - | - | - |
| 1787628949 | 15.56° C | 76% | 1013.1 hPa | 0 mm | - | - | - |
* Rain latest hour (hover to see other rain measurements)
** Current wind speed in m/s (hover to see current wind gust speed)